Regional Weather Roundup
Issued by NWS

Home | Current Version | Previous Version | Text Only | Print | Product List | Glossary Off
Versions: 1 2 3 4 5 6 7 8 9 10 11 12 13 14 15 16 17 18 19 20 21 22 23 24 25 26 27 28 29 30 31 32 33 34 35 36 37 38 39 40 41 42 43 44 45 46 47 48 49 50

000
ASUS43 KLMK 252010
RWRKY
KENTUCKY REGIONAL WEATHER ROUNDUP
NATIONAL WEATHER SERVICE LOUISVILLE KY
400 PM EDT FRI JUL 25 2014

NOTE "FAIR" INDICATES FEW OR NO CLOUDS BELOW 12,000 FEET
WITH NO SIGNIFICANT WEATHER AND/OR OBSTRUCTIONS TO VISIBILITY.

KYZ001>023-026-027-061>063-070>075-252100-
WESTERN AND SOUTH CENTRAL KENTUCKY

CITY           SKY/WX    TMP DP  RH WIND       PRES   REMARKS
PADUCAH        CLOUDY    82  59  45 SW3       30.03S
HENDERSON      CLOUDY    79  57  47 N7        30.05S
OWENSBORO      MOSUNNY   81  56  42 N10       30.06S
HOPKINSVILLE   MOSUNNY   84  56  37 VRB2      30.02F
BOWLING GREEN  MOSUNNY   83  54  36 CALM      30.03F
GLASGOW        MOSUNNY   83  54  36 NW3       30.04F
$$

KYZ024-025-028>034-038-045-046-053-252100-
NORTH CENTRAL KENTUCKY

CITY           SKY/WX    TMP DP  RH WIND       PRES   REMARKS
LOUISVILLE/SDF PTSUNNY   83  53  35 CALM      30.03F
LOUISVILLE/LOU PTSUNNY   83  53  35 NW6       30.04F
FORT KNOX      MOSUNNY   79  56  46 W6        30.05S
$$

KYZ035>037-039>044-047>052-055>060-089>105-252100-
NORTHEAST KENTUCKY

CITY           SKY/WX    TMP DP  RH WIND       PRES   REMARKS
LEXINGTON      MOSUNNY   82  55  39 VRB3      30.06S
COVINGTON      PTSUNNY   78  55  44 SW9       30.05S
FRANKFORT      MOSUNNY   80  55  42 W7        30.04F
$$

KYZ054-064>069-076>088-106>120-252100-
SOUTHEAST KENTUCKY

CITY           SKY/WX    TMP DP  RH WIND       PRES   REMARKS
JACKSON        MOSUNNY   75  57  53 VRB3      30.07F
LONDON         MOSUNNY   77  57  50 VRB3      30.08S
SOMERSET       MOSUNNY   77  55  47 W3        30.08F
MIDDLESBORO    PTSUNNY   78  64  62 NE6       30.06S
MONTICELLO     PTCLDY    80  61  52 CALM      30.09S
$$




USA.gov is the U.S. government's official web portal to all federal, state and local government web resources and services.